sat.trackr.live / text

‹ back to catalog

FLOCK 4Q-4

NORAD 58327 · 2023-174BZ

PAYLOAD ACTIVE UNKNOWN

§ Identity

Operator
Country
US
Launch date
2023-11-11
Launch site
AFWTR
Launch vehicle
Mass (kg)
RCS (m²)

Purposes: earth_obs

External: N2YO · Heavens-Above · Gunter

§ Orbital elements

Epoch: 2026-05-25T04:47:38.858784Z

Period
93.05 min
Inclination
97.3821°
Eccentricity
0.0005084
Mean motion
15.47515891 rev/d
Perigee alt
420.5 km
Apogee alt
427.5 km
Semi-major
6,802.1 km
B*
4.0215e-4
RAAN
232.4214°
Arg perigee
229.8652°
Mean anomaly
130.2153°
Rev number
14,200

§ Raw data

FLOCK 4Q-41 58327U 23174BZ  26145.19975531  .00020609  00000+0  40215-3 0  99912 58327  97.3821 232.4214 0005084 229.8652 130.2153 15.47515891142004

JSON: /api/v1/satellites/58327 · /tle

For live sub-satellite position, see the globe view (requires WebGL).

§ Visibility from observer

Set your observer location to see the next 7 days of passes ≥ 10°. The values pass through the URL so the page stays shareable.

No JS? Fill the form by hand. The geolocation button needs JavaScript.